Wetterdaten: Samstag, 08.02.2014
Datum Zeit Temperatur Luftfeuchte Luftdruck Regen Wind Richtung Richtung Taupunkt Windchill Windben
08.02.2014 00:00 3,0 C 70 % 1010,6 hPa 0,0 l/m 4,8 km/h (1 Bft) O-SO 112 -1,9 C 1,9 C 6,1 km/h (2 Bft)
08.02.2014 00:05 2,9 C 72 % 1010,5 hPa 0,0 l/m 4,2 km/h (1 Bft) S 180 -1,6 C 2,2 C 1,9 km/h (1 Bft)
08.02.2014 00:10 2,7 C 72 % 1010,5 hPa 0,0 l/m 3,4 km/h (1 Bft) S-SO 157 -1,8 C 2,5 C 4,5 km/h (1 Bft)
08.02.2014 00:15 2,6 C 72 % 1010,5 hPa 0,0 l/m 3,2 km/h (1 Bft) O-SO 112 -1,9 C 2,6 C 1,8 km/h (1 Bft)
08.02.2014 00:20 2,6 C 73 % 1010,5 hPa 0,0 l/m 2,7 km/h (1 Bft) O-SO 112 -1,7 C 2,8 C 4,8 km/h (1 Bft)
08.02.2014 00:25 2,6 C 73 % 1010,6 hPa 0,0 l/m 3,2 km/h (1 Bft) O 90 -1,7 C 2,4 C 6,1 km/h (2 Bft)
08.02.2014 00:30 2,5 C 73 % 1010,6 hPa 0,0 l/m 4,0 km/h (1 Bft) O-SO 112 -1,8 C 2,0 C 6,8 km/h (2 Bft)
08.02.2014 00:35 2,4 C 73 % 1010,6 hPa 0,0 l/m 4,2 km/h (1 Bft) O-SO 112 -1,9 C 1,9 C 2,7 km/h (1 Bft)
08.02.2014 00:40 2,5 C 73 % 1010,6 hPa 0,0 l/m 3,5 km/h (1 Bft) SO 135 -1,8 C 2,2 C 1,8 km/h (1 Bft)
08.02.2014 00:45 2,6 C 73 % 1010,4 hPa 0,0 l/m 2,7 km/h (1 Bft) SO 135 -1,7 C 2,6 C 3,5 km/h (1 Bft)
08.02.2014 00:50 2,6 C 73 % 1010,4 hPa 0,0 l/m 2,1 km/h (1 Bft) O-SO 112 -1,7 C 2,5 C 3,7 km/h (1 Bft)
08.02.2014 00:55 2,4 C 73 % 1010,4 hPa 0,0 l/m 2,6 km/h (1 Bft) O-SO 112 -1,9 C 2,5 C 3,9 km/h (1 Bft)
08.02.2014 01:00 2,3 C 74 % 1010,4 hPa 0,0 l/m 3,1 km/h (1 Bft) O-SO 112 -1,8 C 2,1 C 3,4 km/h (1 Bft)
08.02.2014 01:05 2,2 C 75 % 1010,4 hPa 0,0 l/m 2,9 km/h (1 Bft) NO 45 -1,8 C 2,1 C 3,4 km/h (1 Bft)
08.02.2014 01:10 1,9 C 75 % 1010,4 hPa 0,0 l/m 2,6 km/h (1 Bft) NO 45 -2,1 C 2,0 C 2,6 km/h (1 Bft)
08.02.2014 01:15 1,8 C 75 % 1010,4 hPa 0,0 l/m 1,4 km/h (1 Bft) O-SO 112 -2,1 C 1,8 C 0,0 km/h (0 Bft)
08.02.2014 01:20 1,3 C 76 % 1010,4 hPa 0,0 l/m 0,3 km/h (0 Bft) O-SO 112 -2,5 C 1,4 C 0,0 km/h (0 Bft)
08.02.2014 01:25 1,2 C 76 % 1010,5 hPa 0,0 l/m 0,6 km/h (0 Bft) S 180 -2,5 C 1,3 C 3,5 km/h (1 Bft)
08.02.2014 01:30 1,4 C 77 % 1010,5 hPa 0,0 l/m 2,1 km/h (1 Bft) O 90 -2,2 C 1,2 C 0,0 km/h (0 Bft)
08.02.2014 01:35 1,3 C 77 % 1010,5 hPa 0,0 l/m 1,8 km/h (1 Bft) O 90 -2,3 C 1,2 C 0,0 km/h (0 Bft)
08.02.2014 01:40 1,0 C 78 % 1010,5 hPa 0,0 l/m 0,5 km/h (0 Bft) O 90 -2,4 C 0,9 C 4,0 km/h (1 Bft)
08.02.2014 01:45 1,2 C 78 % 1010,2 hPa 0,0 l/m 1,3 km/h (1 Bft) O 90 -2,2 C 0,9 C 3,1 km/h (1 Bft)
08.02.2014 01:50 1,2 C 79 % 1010,2 hPa 0,0 l/m 3,4 km/h (1 Bft) NO 45 -2,0 C 0,2 C 6,9 km/h (2 Bft)
08.02.2014 01:55 1,1 C 79 % 1010,2 hPa 0,0 l/m 4,8 km/h (1 Bft) O-NO 67 -2,1 C -0,5 C 7,2 km/h (2 Bft)
08.02.2014 02:00 1,2 C 79 % 1010,2 hPa 0,0 l/m 6,3 km/h (2 Bft) O 90 -2,0 C -0,9 C 7,6 km/h (2 Bft)
08.02.2014 02:05 1,2 C 80 % 1010,5 hPa 0,0 l/m 6,6 km/h (2 Bft) O 90 -1,9 C -1,2 C 7,6 km/h (2 Bft)
08.02.2014 02:10 0,8 C 80 % 1010,5 hPa 0,0 l/m 6,6 km/h (2 Bft) NO 45 -2,2 C -1,3 C 6,1 km/h (2 Bft)
08.02.2014 02:15 0,6 C 80 % 1010,5 hPa 0,0 l/m 5,1 km/h (1 Bft) O 90 -2,4 C -0,9 C 2,7 km/h (1 Bft)
08.02.2014 02:20 0,5 C 81 % 1010,5 hPa 0,0 l/m 2,6 km/h (1 Bft) O-SO 112 -2,4 C -0,1 C 0,0 km/h (0 Bft)
08.02.2014 02:25 0,1 C 81 % 1010,4 hPa 0,0 l/m 2,3 km/h (1 Bft) O-SO 112 -2,8 C -0,2 C 5,8 km/h (2 Bft)
08.02.2014 02:30 0,0 C 82 % 1010,4 hPa 0,0 l/m 2,4 km/h (1 Bft) NO 45 -2,7 C -0,6 C 0,0 km/h (0 Bft)
08.02.2014 02:35 -0,2 C 82 % 1010,4 hPa 0,0 l/m 1,9 km/h (1 Bft) O-NO 67 -2,9 C -0,7 C 0,0 km/h (0 Bft)
08.02.2014 02:40 -0,7 C 82 % 1010,4 hPa 0,0 l/m 0,5 km/h (0 Bft) NO 45 -3,4 C -1,1 C 0,0 km/h (0 Bft)
08.02.2014 02:45 -0,6 C 83 % 1010,2 hPa 0,0 l/m 0,6 km/h (0 Bft) NO 45 -3,1 C -1,3 C 2,7 km/h (1 Bft)
08.02.2014 02:49 -0,3 C 85 % 1010,2 hPa 0,0 l/m 1,6 km/h (1 Bft) NO 45 -2,5 C -1,3 C 4,3 km/h (1 Bft)
08.02.2014 02:50 -0,3 C 85 % 1010,2 hPa 0,0 l/m 1,6 km/h (1 Bft) NO 45 -2,5 C -1,3 C 4,3 km/h (1 Bft)
08.02.2014 02:55 -0,7 C 84 % 1010,2 hPa 0,0 l/m 1,8 km/h (1 Bft) O-SO 112 -3,1 C -1,2 C 0,0 km/h (0 Bft)
08.02.2014 03:00 -1,3 C 84 % 1010,2 hPa 0,0 l/m 0,6 km/h (0 Bft) SO 135 -3,6 C -1,5 C 0,0 km/h (0 Bft)
08.02.2014 03:05 -1,0 C 85 % 1009,9 hPa 0,0 l/m 0,5 km/h (0 Bft) O-NO 67 -3,2 C -1,6 C 0,0 km/h (0 Bft)
08.02.2014 03:10 -1,4 C 85 % 1009,9 hPa 0,0 l/m 0,2 km/h (0 Bft) NO 45 -3,6 C -1,8 C 0,0 km/h (0 Bft)
08.02.2014 03:15 -1,6 C 85 % 1009,9 hPa 0,0 l/m 0,3 km/h (0 Bft) W 270 -3,8 C -1,9 C 2,1 km/h (1 Bft)
08.02.2014 03:20 -1,6 C 85 % 1009,9 hPa 0,0 l/m 0,3 km/h (0 Bft) N-NW 337 -3,8 C -2,2 C 0,0 km/h (0 Bft)
08.02.2014 03:25 -1,5 C 86 % 1009,7 hPa 0,0 l/m 0,5 km/h (0 Bft) N-NW 337 -3,5 C -2,4 C 0,0 km/h (0 Bft)
08.02.2014 03:30 -1,5 C 86 % 1009,7 hPa 0,0 l/m 0,8 km/h (0 Bft) N 360 -3,5 C -2,3 C 0,0 km/h (0 Bft)
08.02.2014 03:35 -1,9 C 86 % 1009,7 hPa 0,0 l/m 0,5 km/h (0 Bft) N 360 -3,9 C -2,4 C 0,0 km/h (0 Bft)
08.02.2014 03:40 -2,2 C 86 % 1009,7 hPa 0,0 l/m 0,2 km/h (0 Bft) W-SW 247 -4,2 C -2,5 C 1,6 km/h (1 Bft)
08.02.2014 03:45 -2,2 C 86 % 1009,4 hPa 0,0 l/m 0,2 km/h (0 Bft) W-SW 247 -4,2 C -2,6 C 0,0 km/h (0 Bft)
08.02.2014 03:50 -2,0 C 87 % 1009,4 hPa 0,0 l/m 0,2 km/h (0 Bft) W 270 -3,9 C -2,9 C 0,0 km/h (0 Bft)
08.02.2014 03:55 -2,0 C 87 % 1009,4 hPa 0,0 l/m 0,2 km/h (0 Bft) N-NW 337 -3,9 C -2,9 C 0,0 km/h (0 Bft)
08.02.2014 04:00 -2,7 C 87 % 1009,4 hPa 0,0 l/m 0,0 km/h (0 Bft) NW 315 -4,6 C -2,7 C 0,0 km/h (0 Bft)
08.02.2014 04:05 -2,8 C 87 % 1009,0 hPa 0,0 l/m 0,0 km/h (0 Bft) NW 315 -4,7 C -2,7 C 0,0 km/h (0 Bft)
08.02.2014 04:10 -2,5 C 87 % 1009,0 hPa 0,0 l/m 0,0 km/h (0 Bft) NW 315 -4,4 C -2,9 C 0,0 km/h (0 Bft)
08.02.2014 04:15 -2,4 C 88 % 1009,0 hPa 0,0 l/m 0,2 km/h (0 Bft) NW 315 -4,1 C -2,9 C 0,0 km/h (0 Bft)
08.02.2014 04:20 -2,4 C 88 % 1009,0 hPa 0,0 l/m 0,2 km/h (0 Bft) NW 315 -4,1 C -2,8 C 0,0 km/h (0 Bft)
08.02.2014 04:25 -2,7 C 88 % 1008,7 hPa 0,0 l/m 0,0 km/h (0 Bft) NW 315 -4,4 C -2,7 C 0,0 km/h (0 Bft)
08.02.2014 04:30 -3,1 C 88 % 1008,7 hPa 0,0 l/m 0,0 km/h (0 Bft) NW 315 -4,8 C -2,9 C 0,0 km/h (0 Bft)
08.02.2014 04:35 -2,7 C 88 % 1008,7 hPa 0,0 l/m 0,2 km/h (0 Bft) NW 315 -4,4 C -3,0 C 0,0 km/h (0 Bft)
08.02.2014 04:40 -2,6 C 88 % 1008,7 hPa 0,0 l/m 0,5 km/h (0 Bft) NW 315 -4,3 C -3,0 C 0,0 km/h (0 Bft)
08.02.2014 04:45 -2,5 C 88 % 1008,4 hPa 0,0 l/m 0,3 km/h (0 Bft) NW 315 -4,2 C -3,0 C 0,0 km/h (0 Bft)
08.02.2014 04:50 -2,5 C 88 % 1008,4 hPa 0,0 l/m 0,0 km/h (0 Bft) NW 315 -4,2 C -2,9 C 0,0 km/h (0 Bft)
08.02.2014 04:55 -2,6 C 88 % 1008,4 hPa 0,0 l/m 0,2 km/h (0 Bft) NW 315 -4,3 C -2,9 C 2,3 km/h (1 Bft)
08.02.2014 05:00 -2,8 C 88 % 1008,4 hPa 0,0 l/m 0,2 km/h (0 Bft) NW 315 -4,5 C -3,2 C 0,0 km/h (0 Bft)
08.02.2014 05:05 -2,9 C 88 % 1008,3 hPa 0,0 l/m 0,2 km/h (0 Bft) NW 315 -4,6 C -3,4 C 0,0 km/h (0 Bft)
08.02.2014 05:10 -3,2 C 88 % 1008,3 hPa 0,0 l/m 0,0 km/h (0 Bft) NW 315 -4,9 C -3,6 C 0,0 km/h (0 Bft)
08.02.2014 05:15 -3,4 C 88 % 1008,3 hPa 0,0 l/m 0,0 km/h (0 Bft) NW 315 -5,1 C -3,8 C 0,0 km/h (0 Bft)
08.02.2014 05:20 -3,5 C 88 % 1008,3 hPa 0,0 l/m 0,0 km/h (0 Bft) NW 315 -5,2 C -3,9 C 0,0 km/h (0 Bft)
08.02.2014 05:25 -3,3 C 88 % 1007,9 hPa 0,0 l/m 0,0 km/h (0 Bft) NW 315 -5,0 C -4,1 C 1,6 km/h (1 Bft)
08.02.2014 05:30 -3,5 C 88 % 1007,9 hPa 0,0 l/m 0,0 km/h (0 Bft) NW 315 -5,2 C -4,0 C 0,0 km/h (0 Bft)
08.02.2014 05:35 -3,5 C 88 % 1007,9 hPa 0,0 l/m 0,0 km/h (0 Bft) NW 315 -5,2 C -4,0 C 0,0 km/h (0 Bft)
08.02.2014 05:40 -3,7 C 88 % 1007,9 hPa 0,0 l/m 0,0 km/h (0 Bft) NW 315 -5,4 C -4,0 C 0,0 km/h (0 Bft)
08.02.2014 05:45 -3,7 C 88 % 1007,8 hPa 0,0 l/m 0,0 km/h (0 Bft) NW 315 -5,4 C -4,1 C 0,0 km/h (0 Bft)
08.02.2014 05:50 -3,8 C 88 % 1007,8 hPa 0,0 l/m 0,0 km/h (0 Bft) NW 315 -5,5 C -4,1 C 0,0 km/h (0 Bft)
08.02.2014 05:55 -3,8 C 88 % 1007,8 hPa 0,0 l/m 0,0 km/h (0 Bft) NW 315 -5,5 C -4,2 C 0,0 km/h (0 Bft)
08.02.2014 06:00 -4,0 C 88 % 1007,8 hPa 0,0 l/m 0,0 km/h (0 Bft) NW 315 -5,7 C -4,3 C 0,0 km/h (0 Bft)
08.02.2014 06:05 -4,0 C 88 % 1007,6 hPa 0,0 l/m 0,0 km/h (0 Bft) NW 315 -5,7 C -4,3 C 0,0 km/h (0 Bft)
08.02.2014 06:10 -4,3 C 88 % 1007,6 hPa 0,0 l/m 0,0 km/h (0 Bft) NW 315 -6,0 C -4,4 C 0,0 km/h (0 Bft)
08.02.2014 06:15 -4,0 C 88 % 1007,6 hPa 0,0 l/m 0,0 km/h (0 Bft) NW 315 -5,7 C -4,4 C 0,0 km/h (0 Bft)
08.02.2014 06:20 -4,0 C 88 % 1007,6 hPa 0,0 l/m 0,2 km/h (0 Bft) NW 315 -5,7 C -4,4 C 0,0 km/h (0 Bft)
08.02.2014 06:25 -4,2 C 88 % 1007,3 hPa 0,0 l/m 0,2 km/h (0 Bft) NW 315 -5,9 C -4,4 C 0,0 km/h (0 Bft)
08.02.2014 06:30 -3,7 C 88 % 1007,3 hPa 0,0 l/m 0,8 km/h (0 Bft) NW 315 -5,4 C -4,5 C 0,0 km/h (0 Bft)
08.02.2014 06:35 -3,7 C 88 % 1007,3 hPa 0,0 l/m 0,8 km/h (0 Bft) NW 315 -5,4 C -4,3 C 0,0 km/h (0 Bft)
08.02.2014 06:40 -3,9 C 88 % 1007,3 hPa 0,0 l/m 0,2 km/h (0 Bft) NW 315 -5,6 C -4,2 C 1,8 km/h (1 Bft)
08.02.2014 06:45 -3,8 C 88 % 1007,4 hPa 0,0 l/m 0,3 km/h (0 Bft) NW 315 -5,5 C -4,3 C 2,6 km/h (1 Bft)
08.02.2014 06:50 -3,8 C 88 % 1007,4 hPa 0,0 l/m 0,3 km/h (0 Bft) NW 315 -5,5 C -4,2 C 0,0 km/h (0 Bft)
08.02.2014 06:55 -3,8 C 88 % 1007,4 hPa 0,0 l/m 0,3 km/h (0 Bft) NW 315 -5,5 C -4,2 C 0,0 km/h (0 Bft)
08.02.2014 07:00 -4,4 C 88 % 1007,4 hPa 0,0 l/m 0,0 km/h (0 Bft) NW 315 -6,1 C -4,3 C 0,0 km/h (0 Bft)
08.02.2014 07:05 -4,4 C 88 % 1007,2 hPa 0,0 l/m 0,0 km/h (0 Bft) NW 315 -6,1 C -4,5 C 0,0 km/h (0 Bft)
08.02.2014 07:10 -4,1 C 88 % 1007,2 hPa 0,0 l/m 0,0 km/h (0 Bft) NW 315 -5,8 C -4,6 C 1,6 km/h (1 Bft)
08.02.2014 07:15 -4,1 C 88 % 1007,2 hPa 0,0 l/m 0,3 km/h (0 Bft) NW 315 -5,8 C -4,5 C 1,9 km/h (1 Bft)
08.02.2014 07:20 -4,3 C 88 % 1007,2 hPa 0,0 l/m 1,0 km/h (0 Bft) NW 315 -6,0 C -4,3 C 1,9 km/h (1 Bft)
08.02.2014 07:25 -4,3 C 88 % 1006,8 hPa 0,0 l/m 0,6 km/h (0 Bft) NW 315 -6,0 C -4,2 C 0,0 km/h (0 Bft)
08.02.2014 07:30 -4,3 C 88 % 1006,8 hPa 0,0 l/m 0,2 km/h (0 Bft) NW 315 -6,0 C -4,4 C 0,0 km/h (0 Bft)
08.02.2014 07:35 -4,3 C 88 % 1006,8 hPa 0,0 l/m 0,0 km/h (0 Bft) NW 315 -6,0 C -4,5 C 0,0 km/h (0 Bft)
08.02.2014 07:40 -4,2 C 88 % 1006,8 hPa 0,0 l/m 0,5 km/h (0 Bft) NW 315 -5,9 C -4,4 C 0,0 km/h (0 Bft)
08.02.2014 07:45 -4,1 C 88 % 1006,5 hPa 0,0 l/m 0,5 km/h (0 Bft) NW 315 -5,8 C -4,3 C 0,0 km/h (0 Bft)
08.02.2014 07:48 -4,3 C 88 % 1006,5 hPa 0,0 l/m 0,2 km/h (0 Bft) NW 315 -6,0 C -4,4 C 0,0 km/h (0 Bft)
08.02.2014 07:50 -4,3 C 88 % 1006,5 hPa 0,0 l/m 0,2 km/h (0 Bft) NW 315 -6,0 C -4,4 C 0,0 km/h (0 Bft)
08.02.2014 07:55 -4,1 C 88 % 1006,5 hPa 0,0 l/m 0,0 km/h (0 Bft) NW 315 -5,8 C -4,4 C 0,0 km/h (0 Bft)
08.02.2014 08:00 -4,1 C 88 % 1006,5 hPa 0,0 l/m 0,0 km/h (0 Bft) NW 315 -5,8 C -4,2 C 0,0 km/h (0 Bft)
08.02.2014 08:05 -4,1 C 88 % 1006,2 hPa 0,0 l/m 0,0 km/h (0 Bft) NW 315 -5,8 C -4,2 C 0,0 km/h (0 Bft)
08.02.2014 08:10 -3,9 C 89 % 1006,2 hPa 0,0 l/m 0,2 km/h (0 Bft) NW 315 -5,4 C -4,2 C 2,7 km/h (1 Bft)
08.02.2014 08:15 -4,0 C 89 % 1006,2 hPa 0,0 l/m 0,3 km/h (0 Bft) NW 315 -5,5 C -4,2 C 0,0 km/h (0 Bft)
08.02.2014 08:20 -4,1 C 88 % 1006,2 hPa 0,0 l/m 0,5 km/h (0 Bft) NW 315 -5,8 C -4,1 C 3,1 km/h (1 Bft)
08.02.2014 08:25 -3,9 C 89 % 1005,8 hPa 0,0 l/m 0,3 km/h (0 Bft) NW 315 -5,4 C -4,0 C 0,0 km/h (0 Bft)
08.02.2014 08:30 -3,5 C 89 % 1005,8 hPa 0,0 l/m 0,3 km/h (0 Bft) NW 315 -5,0 C -3,9 C 0,0 km/h (0 Bft)
08.02.2014 08:35 -3,3 C 89 % 1005,8 hPa 0,0 l/m 0,0 km/h (0 Bft) NW 315 -4,8 C -3,7 C 0,0 km/h (0 Bft)
08.02.2014 08:40 -3,1 C 89 % 1005,8 hPa 0,0 l/m 0,6 km/h (0 Bft) NW 315 -4,6 C -3,2 C 4,0 km/h (1 Bft)
08.02.2014 08:45 -3,2 C 89 % 1005,7 hPa 0,0 l/m 0,8 km/h (0 Bft) NW 315 -4,7 C -3,1 C 1,6 km/h (1 Bft)
08.02.2014 08:50 -2,8 C 89 % 1005,7 hPa 0,0 l/m 0,6 km/h (0 Bft) NW 315 -4,4 C -2,9 C 4,0 km/h (1 Bft)
08.02.2014 08:55 -2,3 C 90 % 1005,7 hPa 0,0 l/m 1,0 km/h (0 Bft) NW 315 -3,7 C -2,6 C 0,0 km/h (0 Bft)
08.02.2014 09:00 -1,8 C 90 % 1005,7 hPa 0,0 l/m 1,8 km/h (1 Bft) NW 315 -3,2 C -2,1 C 6,1 km/h (2 Bft)
08.02.2014 09:05 -1,5 C 90 % 1005,2 hPa 0,0 l/m 1,6 km/h (1 Bft) NW 315 -2,9 C -1,7 C 0,0 km/h (0 Bft)
08.02.2014 09:10 -1,4 C 90 % 1005,2 hPa 0,0 l/m 1,6 km/h (1 Bft) NW 315 -2,8 C -1,3 C 4,8 km/h (1 Bft)
08.02.2014 09:15 -1,1 C 91 % 1005,2 hPa 0,0 l/m 0,6 km/h (0 Bft) NW 315 -2,4 C -1,0 C 0,0 km/h (0 Bft)
08.02.2014 09:20 -0,6 C 91 % 1005,2 hPa 0,0 l/m 0,6 km/h (0 Bft) NW 315 -1,9 C -0,7 C 0,0 km/h (0 Bft)
08.02.2014 09:25 -0,4 C 91 % 1005,2 hPa 0,0 l/m 0,3 km/h (0 Bft) NW 315 -1,7 C -0,6 C 0,0 km/h (0 Bft)
08.02.2014 09:30 -0,3 C 91 % 1005,2 hPa 0,0 l/m 0,0 km/h (0 Bft) NW 315 -1,6 C -0,4 C 0,0 km/h (0 Bft)
08.02.2014 09:35 -0,2 C 91 % 1005,2 hPa 0,0 l/m 0,8 km/h (0 Bft) NW 315 -1,5 C -0,3 C 4,3 km/h (1 Bft)
08.02.2014 09:40 -0,3 C 91 % 1005,2 hPa 0,0 l/m 1,8 km/h (1 Bft) NW 315 -1,6 C -0,2 C 3,5 km/h (1 Bft)
08.02.2014 09:45 -0,3 C 91 % 1004,9 hPa 0,0 l/m 1,6 km/h (1 Bft) NW 315 -1,6 C -0,2 C 0,0 km/h (0 Bft)
08.02.2014 09:50 -0,4 C 91 % 1004,9 hPa 0,0 l/m 0,6 km/h (0 Bft) NW 315 -1,7 C -0,2 C 0,0 km/h (0 Bft)
08.02.2014 09:55 -0,4 C 90 % 1004,9 hPa 0,0 l/m 0,0 km/h (0 Bft) NW 315 -1,8 C 0,0 C 0,0 km/h (0 Bft)
08.02.2014 10:00 -0,4 C 90 % 1004,9 hPa 0,0 l/m 0,2 km/h (0 Bft) NW 315 -1,8 C 0,2 C 0,0 km/h (0 Bft)
08.02.2014 10:05 -0,2 C 91 % 1004,8 hPa 0,0 l/m 0,5 km/h (0 Bft) NW 315 -1,5 C 0,9 C 0,0 km/h (0 Bft)
08.02.2014 10:10 0,0 C 91 % 1004,8 hPa 0,0 l/m 0,6 km/h (0 Bft) NW 315 -1,3 C 2,3 C 0,0 km/h (0 Bft)
08.02.2014 10:15 0,0 C 91 % 1004,8 hPa 0,0 l/m 0,5 km/h (0 Bft) NW 315 -1,3 C 3,7 C 0,0 km/h (0 Bft)
08.02.2014 10:20 0,3 C 91 % 1004,8 hPa 0,0 l/m 0,8 km/h (0 Bft) N-NW 337 -1,0 C 5,4 C 0,0 km/h (0 Bft)
08.02.2014 10:25 0,5 C 91 % 1004,4 hPa 0,0 l/m 1,3 km/h (1 Bft) NO 45 -0,8 C 6,4 C 2,1 km/h (1 Bft)
08.02.2014 10:30 1,3 C 91 % 1004,4 hPa 0,0 l/m 1,0 km/h (0 Bft) NO 45 -0,0 C 7,5 C 3,5 km/h (1 Bft)
08.02.2014 10:35 1,5 C 92 % 1004,4 hPa 0,0 l/m 1,9 km/h (1 Bft) N-NW 337 0,3 C 8,1 C 5,8 km/h (2 Bft)
08.02.2014 10:40 1,6 C 92 % 1004,4 hPa 0,0 l/m 2,7 km/h (1 Bft) O-NO 67 0,4 C 8,6 C 3,2 km/h (1 Bft)
08.02.2014 10:45 1,8 C 92 % 1004,1 hPa 0,0 l/m 2,6 km/h (1 Bft) NO 45 0,6 C 9,0 C 0,0 km/h (0 Bft)
08.02.2014 10:50 2,1 C 92 % 1004,1 hPa 0,0 l/m 1,1 km/h (1 Bft) W-NW 292 0,9 C 10,3 C 2,3 km/h (1 Bft)
08.02.2014 10:55 2,7 C 92 % 1004,1 hPa 0,0 l/m 1,3 km/h (1 Bft) NO 45 1,5 C 10,8 C 0,0 km/h (0 Bft)
08.02.2014 11:00 2,8 C 92 % 1004,1 hPa 0,0 l/m 2,3 km/h (1 Bft) N-NW 337 1,6 C 11,4 C 6,1 km/h (2 Bft)
08.02.2014 11:05 3,3 C 90 % 1004,1 hPa 0,0 l/m 2,4 km/h (1 Bft) NO 45 1,8 C 11,6 C 0,0 km/h (0 Bft)
08.02.2014 11:10 3,5 C 89 % 1004,1 hPa 0,0 l/m 2,6 km/h (1 Bft) W 270 1,9 C 12,4 C 4,2 km/h (1 Bft)
08.02.2014 11:15 3,7 C 89 % 1004,1 hPa 0,0 l/m 2,3 km/h (1 Bft) O 90 2,1 C 12,7 C 4,3 km/h (1 Bft)
08.02.2014 11:20 4,0 C 86 % 1004,1 hPa 0,0 l/m 3,1 km/h (1 Bft) W-SW 247 1,9 C 13,0 C 3,1 km/h (1 Bft)
08.02.2014 11:25 4,1 C 85 % 1004,2 hPa 0,0 l/m 2,6 km/h (1 Bft) W-SW 247 1,8 C 13,5 C 2,1 km/h (1 Bft)
08.02.2014 11:30 4,4 C 84 % 1004,2 hPa 0,0 l/m 1,9 km/h (1 Bft) W-NW 292 1,9 C 14,0 C 7,9 km/h (2 Bft)
08.02.2014 11:35 4,3 C 84 % 1004,2 hPa 0,0 l/m 2,7 km/h (1 Bft) O 90 1,8 C 13,9 C 4,0 km/h (1 Bft)
08.02.2014 11:40 4,9 C 78 % 1004,2 hPa 0,0 l/m 3,1 km/h (1 Bft) W-NW 292 1,4 C 14,3 C 12,2 km/h (2 Bft)
08.02.2014 11:45 5,4 C 72 % 1004,0 hPa 0,0 l/m 3,4 km/h (1 Bft) W-SW 247 0,8 C 14,1 C 5,6 km/h (1 Bft)
08.02.2014 11:50 5,4 C 75 % 1004,0 hPa 0,0 l/m 4,3 km/h (1 Bft) NW 315 1,3 C 14,1 C 6,0 km/h (2 Bft)
08.02.2014 11:55 5,1 C 79 % 1004,0 hPa 0,0 l/m 4,0 km/h (1 Bft) O 90 1,8 C 14,0 C 6,4 km/h (2 Bft)
08.02.2014 12:00 5,5 C 76 % 1004,0 hPa 0,0 l/m 4,8 km/h (1 Bft) N-NW 337 1,6 C 13,8 C 7,7 km/h (2 Bft)
08.02.2014 12:05 5,8 C 69 % 1003,9 hPa 0,0 l/m 6,0 km/h (2 Bft) N-NW 337 0,6 C 13,3 C 7,7 km/h (2 Bft)
08.02.2014 12:10 5,7 C 75 % 1003,9 hPa 0,0 l/m 6,4 km/h (2 Bft) W-NW 292 1,6 C 13,1 C 8,2 km/h (2 Bft)
08.02.2014 12:15 6,1 C 69 % 1003,9 hPa 0,0 l/m 6,4 km/h (2 Bft) N 360 0,8 C 13,1 C 9,7 km/h (2 Bft)
08.02.2014 12:20 6,3 C 66 % 1003,9 hPa 0,0 l/m 6,4 km/h (2 Bft) N-NW 337 0,4 C 13,1 C 6,9 km/h (2 Bft)
08.02.2014 12:25 7,0 C 59 % 1003,6 hPa 0,0 l/m 6,3 km/h (2 Bft) W-NW 292 -0,5 C 13,2 C 7,1 km/h (2 Bft)
08.02.2014 12:30 7,0 C 60 % 1003,6 hPa 0,0 l/m 5,6 km/h (1 Bft) W-NW 292 -0,2 C 12,8 C 3,2 km/h (1 Bft)
08.02.2014 12:35 7,2 C 72 % 1003,6 hPa 0,0 l/m 4,8 km/h (1 Bft) NO 45 2,5 C 12,6 C 1,9 km/h (1 Bft)
08.02.2014 12:40 7,7 C 60 % 1003,6 hPa 0,0 l/m 4,3 km/h (1 Bft) NW 315 0,4 C 13,4 C 7,1 km/h (2 Bft)
08.02.2014 12:45 7,6 C 64 % 1003,2 hPa 0,0 l/m 4,5 km/h (1 Bft) N-NW 337 1,2 C 13,8 C 6,1 km/h (2 Bft)
08.02.2014 12:48 8,0 C 59 % 1003,2 hPa 0,0 l/m 6,3 km/h (2 Bft) N 360 0,5 C 13,7 C 13,4 km/h (3 Bft)
08.02.2014 12:50 8,0 C 59 % 1003,2 hPa 0,0 l/m 6,3 km/h (2 Bft) N 360 0,5 C 13,7 C 7,4 km/h (2 Bft)
08.02.2014 12:55 7,9 C 69 % 1003,2 hPa 0,0 l/m 5,8 km/h (2 Bft) NW 315 2,6 C 13,5 C 3,5 km/h (1 Bft)
08.02.2014 13:00 8,8 C 45 % 1003,2 hPa 0,0 l/m 5,8 km/h (2 Bft) N-NW 337 -2,5 C 13,3 C 7,1 km/h (2 Bft)
08.02.2014 13:05 8,9 C 58 % 1002,9 hPa 0,0 l/m 5,0 km/h (1 Bft) W-NW 292 1,1 C 13,3 C 2,1 km/h (1 Bft)
08.02.2014 13:10 8,9 C 50 % 1002,9 hPa 0,0 l/m 3,9 km/h (1 Bft) O-NO 67 -0,9 C 13,2 C 5,5 km/h (1 Bft)
08.02.2014 13:15 8,9 C 44 % 1002,9 hPa 0,0 l/m 3,5 km/h (1 Bft) N-NO 22 -2,7 C 13,1 C 5,5 km/h (1 Bft)
08.02.2014 13:20 8,9 C 50 % 1002,9 hPa 0,0 l/m 3,7 km/h (1 Bft) N-NW 337 -0,9 C 12,7 C 6,0 km/h (2 Bft)
08.02.2014 13:25 8,8 C 47 % 1002,4 hPa 0,0 l/m 5,0 km/h (1 Bft) NW 315 -1,9 C 12,8 C 7,6 km/h (2 Bft)
08.02.2014 13:30 9,6 C 48 % 1002,4 hPa 0,0 l/m 5,8 km/h (2 Bft) N 360 -0,9 C 12,8 C 2,1 km/h (1 Bft)
08.02.2014 13:35 9,8 C 47 % 1002,4 hPa 0,0 l/m 4,8 km/h (1 Bft) N 360 -1,0 C 13,1 C 3,5 km/h (1 Bft)
08.02.2014 13:40 10,2 C 42 % 1002,4 hPa 0,0 l/m 2,6 km/h (1 Bft) W 270 -2,1 C 14,5 C 3,5 km/h (1 Bft)
08.02.2014 13:45 10,3 C 39 % 1001,9 hPa 0,0 l/m 2,9 km/h (1 Bft) N-NW 337 -3,0 C 15,0 C 7,1 km/h (2 Bft)
08.02.2014 13:50 10,2 C 37 % 1001,9 hPa 0,0 l/m 4,7 km/h (1 Bft) N-NW 337 -3,8 C 15,1 C 6,6 km/h (2 Bft)
08.02.2014 13:55 10,1 C 38 % 1001,9 hPa 0,0 l/m 5,0 km/h (1 Bft) W-NW 292 -3,6 C 14,8 C 3,7 km/h (1 Bft)
08.02.2014 14:00 10,5 C 43 % 1001,9 hPa 0,0 l/m 2,9 km/h (1 Bft) W-NW 292 -1,5 C 15,3 C 0,0 km/h (0 Bft)
08.02.2014 14:05 10,7 C 40 % 1001,6 hPa 0,0 l/m 2,7 km/h (1 Bft) N 360 -2,3 C 15,8 C 6,0 km/h (2 Bft)
08.02.2014 14:10 10,3 C 39 % 1001,6 hPa 0,0 l/m 3,2 km/h (1 Bft) N 360 -3,0 C 14,6 C 6,9 km/h (2 Bft)
08.02.2014 14:15 10,1 C 42 % 1001,6 hPa 0,0 l/m 3,1 km/h (1 Bft) O-NO 67 -2,2 C 13,8 C 2,3 km/h (1 Bft)
08.02.2014 14:20 9,8 C 42 % 1001,6 hPa 0,0 l/m 3,4 km/h (1 Bft) N-NO 22 -2,5 C 12,7 C 6,9 km/h (2 Bft)
08.02.2014 14:25 10,0 C 43 % 1001,4 hPa 0,0 l/m 3,1 km/h (1 Bft) NW 315 -2,0 C 12,4 C 0,0 km/h (0 Bft)
08.02.2014 14:30 10,1 C 42 % 1001,4 hPa 0,0 l/m 2,4 km/h (1 Bft) N-NW 337 -2,2 C 12,6 C 3,1 km/h (1 Bft)
08.02.2014 14:35 9,6 C 43 % 1001,4 hPa 0,0 l/m 2,6 km/h (1 Bft) O-NO 67 -2,4 C 12,3 C 3,2 km/h (1 Bft)
08.02.2014 14:40 10,1 C 40 % 1001,4 hPa 0,0 l/m 3,7 km/h (1 Bft) W-SW 247 -2,9 C 12,2 C 2,3 km/h (1 Bft)
08.02.2014 14:45 10,6 C 38 % 1001,2 hPa 0,0 l/m 2,9 km/h (1 Bft) NO 45 -3,1 C 12,6 C 0,0 km/h (0 Bft)
08.02.2014 14:50 11,2 C 38 % 1001,2 hPa 0,0 l/m 2,6 km/h (1 Bft) W-NW 292 -2,6 C 13,8 C 3,9 km/h (1 Bft)
08.02.2014 14:55 10,7 C 38 % 1001,2 hPa 0,0 l/m 3,7 km/h (1 Bft) SO 135 -3,0 C 13,7 C 3,5 km/h (1 Bft)
08.02.2014 15:00 11,0 C 39 % 1001,2 hPa 0,0 l/m 3,9 km/h (1 Bft) W 270 -2,4 C 13,7 C 5,5 km/h (1 Bft)
08.02.2014 15:05 10,7 C 37 % 1000,8 hPa 0,0 l/m 2,9 km/h (1 Bft) N-NO 22 -3,4 C 13,6 C 4,7 km/h (1 Bft)
08.02.2014 15:10 10,3 C 39 % 1000,8 hPa 0,0 l/m 3,5 km/h (1 Bft) W-NW 292 -3,0 C 12,9 C 2,4 km/h (1 Bft)
08.02.2014 15:15 10,0 C 41 % 1000,8 hPa 0,0 l/m 2,6 km/h (1 Bft) W 270 -2,6 C 12,6 C 3,1 km/h (1 Bft)
08.02.2014 15:20 9,9 C 40 % 1000,8 hPa 0,0 l/m 1,9 km/h (1 Bft) O-SO 112 -3,1 C 12,1 C 7,1 km/h (2 Bft)
08.02.2014 15:25 9,8 C 40 % 1000,6 hPa 0,0 l/m 2,1 km/h (1 Bft) O-SO 112 -3,1 C 11,8 C 2,3 km/h (1 Bft)
08.02.2014 15:30 9,5 C 42 % 1000,6 hPa 0,0 l/m 2,3 km/h (1 Bft) N-NO 22 -2,8 C 11,6 C 1,6 km/h (1 Bft)
08.02.2014 15:35 9,3 C 42 % 1000,6 hPa 0,0 l/m 1,8 km/h (1 Bft) N-NO 22 -2,9 C 11,3 C 3,4 km/h (1 Bft)
08.02.2014 15:40 9,0 C 43 % 1000,6 hPa 0,0 l/m 1,0 km/h (0 Bft) W 270 -2,9 C 11,0 C 0,0 km/h (0 Bft)
08.02.2014 15:45 8,7 C 44 % 1000,3 hPa 0,0 l/m 0,6 km/h (0 Bft) W 270 -2,9 C 10,8 C 2,3 km/h (1 Bft)
08.02.2014 15:50 8,4 C 44 % 1000,3 hPa 0,0 l/m 1,3 km/h (1 Bft) O 90 -3,1 C 10,3 C 3,9 km/h (1 Bft)
08.02.2014 15:55 8,5 C 45 % 1000,3 hPa 0,0 l/m 2,7 km/h (1 Bft) S-SW 202 -2,7 C 10,1 C 5,0 km/h (1 Bft)
08.02.2014 16:00 8,4 C 47 % 1000,3 hPa 0,0 l/m 3,9 km/h (1 Bft) O-SO 112 -2,2 C 9,7 C 3,9 km/h (1 Bft)
08.02.2014 16:05 8,1 C 49 % 1000,4 hPa 0,0 l/m 4,2 km/h (1 Bft) O 90 -2,0 C 9,4 C 4,2 km/h (1 Bft)
08.02.2014 16:10 7,8 C 50 % 1000,4 hPa 0,0 l/m 3,7 km/h (1 Bft) O 90 -2,0 C 9,2 C 3,5 km/h (1 Bft)
08.02.2014 16:15 7,7 C 50 % 1000,4 hPa 0,0 l/m 3,5 km/h (1 Bft) SO 135 -2,1 C 9,0 C 2,7 km/h (1 Bft)
08.02.2014 16:20 7,6 C 50 % 1000,4 hPa 0,0 l/m 4,3 km/h (1 Bft) SO 135 -2,1 C 8,5 C 6,9 km/h (2 Bft)
08.02.2014 16:25 7,3 C 51 % 1000,4 hPa 0,0 l/m 4,7 km/h (1 Bft) S-SO 157 -2,2 C 8,2 C 3,2 km/h (1 Bft)
08.02.2014 16:30 7,0 C 52 % 1000,4 hPa 0,0 l/m 6,4 km/h (2 Bft) S 180 -2,2 C 7,3 C 17,9 km/h (3 Bft)
08.02.2014 16:35 6,8 C 54 % 1000,4 hPa 0,0 l/m 8,0 km/h (2 Bft) SO 135 -1,8 C 5,4 C 12,4 km/h (3 Bft)
08.02.2014 16:40 6,4 C 56 % 1000,4 hPa 0,0 l/m 9,0 km/h (2 Bft) S-SO 157 -1,7 C 3,9 C 8,5 km/h (2 Bft)
08.02.2014 16:45 6,1 C 57 % 1000,4 hPa 0,0 l/m 8,9 km/h (2 Bft) SO 135 -1,8 C 3,9 C 10,5 km/h (2 Bft)
08.02.2014 16:50 5,8 C 58 % 1000,4 hPa 0,0 l/m 7,4 km/h (2 Bft) S-SW 202 -1,8 C 4,8 C 9,7 km/h (2 Bft)
08.02.2014 16:55 5,6 C 58 % 1000,4 hPa 0,0 l/m 6,4 km/h (2 Bft) S 180 -2,0 C 5,9 C 10,1 km/h (2 Bft)
08.02.2014 17:00 5,6 C 59 % 1000,4 hPa 0,0 l/m 5,5 km/h (1 Bft) S 180 -1,8 C 5,9 C 6,8 km/h (2 Bft)
08.02.2014 17:05 5,6 C 59 % 1000,7 hPa 0,0 l/m 5,5 km/h (1 Bft) S 180 -1,8 C 5,7 C 7,4 km/h (2 Bft)
08.02.2014 17:10 5,4 C 59 % 1000,7 hPa 0,0 l/m 6,0 km/h (2 Bft) S-SO 157 -2,0 C 5,3 C 6,0 km/h (2 Bft)
08.02.2014 17:15 5,4 C 58 % 1000,7 hPa 0,0 l/m 6,6 km/h (2 Bft) SO 135 -2,2 C 4,9 C 6,8 km/h (2 Bft)
08.02.2014 17:20 5,3 C 58 % 1000,7 hPa 0,0 l/m 6,0 km/h (2 Bft) O-SO 112 -2,3 C 5,2 C 3,2 km/h (1 Bft)
08.02.2014 17:25 5,3 C 58 % 1000,9 hPa 0,0 l/m 4,8 km/h (1 Bft) O-NO 67 -2,3 C 5,5 C 6,1 km/h (2 Bft)
08.02.2014 17:30 5,4 C 57 % 1000,9 hPa 0,0 l/m 4,8 km/h (1 Bft) S-SO 157 -2,4 C 5,4 C 4,3 km/h (1 Bft)
08.02.2014 17:35 5,4 C 56 % 1000,9 hPa 0,0 l/m 5,5 km/h (1 Bft) O-SO 112 -2,7 C 5,2 C 5,8 km/h (2 Bft)
08.02.2014 17:40 5,4 C 56 % 1000,9 hPa 0,0 l/m 5,8 km/h (2 Bft) O 90 -2,7 C 5,1 C 6,6 km/h (2 Bft)
08.02.2014 17:44 5,5 C 56 % 1001,2 hPa 0,0 l/m 6,1 km/h (2 Bft) O 90 -2,6 C 4,9 C 6,9 km/h (2 Bft)
08.02.2014 17:45 5,5 C 56 % 1001,2 hPa 0,0 l/m 6,1 km/h (2 Bft) O 90 -2,6 C 4,9 C 6,9 km/h (2 Bft)
08.02.2014 17:50 5,5 C 56 % 1001,2 hPa 0,0 l/m 6,4 km/h (2 Bft) S-SO 157 -2,6 C 4,8 C 7,2 km/h (2 Bft)
08.02.2014 17:55 5,4 C 56 % 1001,2 hPa 0,0 l/m 5,6 km/h (1 Bft) O-SO 112 -2,7 C 5,1 C 5,1 km/h (1 Bft)
08.02.2014 18:00 5,4 C 56 % 1001,2 hPa 0,0 l/m 4,3 km/h (1 Bft) S 180 -2,7 C 5,6 C 5,6 km/h (1 Bft)
08.02.2014 18:05 5,0 C 57 % 1001,2 hPa 0,0 l/m 3,4 km/h (1 Bft) SO 135 -2,8 C 6,1 C 0,0 km/h (0 Bft)
08.02.2014 18:10 4,9 C 58 % 1001,2 hPa 0,0 l/m 3,9 km/h (1 Bft) SO 135 -2,7 C 5,8 C 3,2 km/h (1 Bft)
08.02.2014 18:15 4,7 C 58 % 1001,2 hPa 0,0 l/m 3,5 km/h (1 Bft) S 180 -2,8 C 5,9 C 3,5 km/h (1 Bft)
08.02.2014 18:20 4,3 C 59 % 1001,2 hPa 0,0 l/m 2,7 km/h (1 Bft) SW 225 -3,0 C 5,8 C 3,9 km/h (1 Bft)
08.02.2014 18:25 4,1 C 59 % 1001,2 hPa 0,0 l/m 2,3 km/h (1 Bft) S 180 -3,2 C 5,6 C 2,1 km/h (1 Bft)
08.02.2014 18:30 4,3 C 60 % 1001,2 hPa 0,0 l/m 2,1 km/h (1 Bft) SO 135 -2,8 C 5,4 C 4,0 km/h (1 Bft)
08.02.2014 18:35 4,6 C 59 % 1001,2 hPa 0,0 l/m 2,7 km/h (1 Bft) NO 45 -2,7 C 5,3 C 7,6 km/h (2 Bft)
08.02.2014 18:40 4,7 C 59 % 1001,2 hPa 0,0 l/m 4,3 km/h (1 Bft) N-NO 22 -2,6 C 4,8 C 1,9 km/h (1 Bft)
08.02.2014 18:45 4,6 C 59 % 1001,2 hPa 0,0 l/m 3,5 km/h (1 Bft) O 90 -2,7 C 5,2 C 2,4 km/h (1 Bft)
08.02.2014 18:50 4,7 C 59 % 1001,2 hPa 0,0 l/m 3,2 km/h (1 Bft) O-SO 112 -2,6 C 5,3 C 5,6 km/h (1 Bft)
08.02.2014 18:55 4,9 C 58 % 1001,2 hPa 0,0 l/m 4,5 km/h (1 Bft) O-SO 112 -2,7 C 4,7 C 6,9 km/h (2 Bft)
08.02.2014 19:00 4,7 C 58 % 1001,2 hPa 0,0 l/m 4,5 km/h (1 Bft) O-SO 112 -2,8 C 4,7 C 3,5 km/h (1 Bft)
08.02.2014 19:05 4,6 C 58 % 1001,2 hPa 0,0 l/m 3,9 km/h (1 Bft) O-SO 112 -2,9 C 4,9 C 4,0 km/h (1 Bft)
08.02.2014 19:10 4,5 C 58 % 1001,2 hPa 0,0 l/m 2,7 km/h (1 Bft) S-SO 157 -3,0 C 5,2 C 1,9 km/h (1 Bft)
08.02.2014 19:15 4,5 C 58 % 1001,2 hPa 0,0 l/m 1,9 km/h (1 Bft) O 90 -3,0 C 5,2 C 0,0 km/h (0 Bft)
08.02.2014 19:20 4,4 C 58 % 1001,2 hPa 0,0 l/m 1,9 km/h (1 Bft) O 90 -3,1 C 5,0 C 4,2 km/h (1 Bft)
08.02.2014 19:25 4,3 C 59 % 1001,0 hPa 0,0 l/m 3,1 km/h (1 Bft) O-NO 67 -3,0 C 4,8 C 3,5 km/h (1 Bft)
08.02.2014 19:30 4,2 C 59 % 1001,0 hPa 0,0 l/m 3,5 km/h (1 Bft) NO 45 -3,1 C 4,6 C 4,2 km/h (1 Bft)
08.02.2014 19:35 4,2 C 60 % 1001,0 hPa 0,0 l/m 3,2 km/h (1 Bft) N-NO 22 -2,9 C 4,7 C 2,4 km/h (1 Bft)
08.02.2014 19:40 3,8 C 61 % 1001,0 hPa 0,0 l/m 1,8 km/h (1 Bft) NO 45 -3,0 C 4,5 C 2,9 km/h (1 Bft)
08.02.2014 19:45 3,8 C 60 % 1000,8 hPa 0,0 l/m 1,0 km/h (0 Bft) NO 45 -3,2 C 4,3 C 2,3 km/h (1 Bft)
08.02.2014 19:50 3,8 C 60 % 1000,8 hPa 0,0 l/m 1,4 km/h (1 Bft) NO 45 -3,2 C 4,0 C 4,2 km/h (1 Bft)
08.02.2014 19:55 3,6 C 61 % 1000,8 hPa 0,0 l/m 2,6 km/h (1 Bft) O 90 -3,2 C 4,0 C 4,0 km/h (1 Bft)
08.02.2014 20:00 3,6 C 61 % 1000,8 hPa 0,0 l/m 3,2 km/h (1 Bft) NO 45 -3,2 C 3,8 C 1,6 km/h (1 Bft)
08.02.2014 20:05 3,2 C 62 % 1000,3 hPa 0,0 l/m 1,9 km/h (1 Bft) S-SO 157 -3,4 C 3,8 C 2,3 km/h (1 Bft)
08.02.2014 20:10 2,8 C 65 % 1000,3 hPa 0,0 l/m 0,2 km/h (0 Bft) S-SO 157 -3,1 C 3,5 C 0,0 km/h (0 Bft)
08.02.2014 20:15 2,6 C 65 % 1000,3 hPa 0,0 l/m 0,0 km/h (0 Bft) S-SO 157 -3,3 C 3,1 C 0,0 km/h (0 Bft)
08.02.2014 20:20 2,5 C 66 % 1000,3 hPa 0,0 l/m 0,0 km/h (0 Bft) S-SO 157 -3,2 C 2,9 C 0,0 km/h (0 Bft)
08.02.2014 20:25 2,6 C 66 % 1000,1 hPa 0,0 l/m 0,0 km/h (0 Bft) O-SO 112 -3,1 C 2,7 C 0,0 km/h (0 Bft)
08.02.2014 20:30 2,4 C 67 % 1000,1 hPa 0,0 l/m 0,2 km/h (0 Bft) S-SO 157 -3,1 C 2,7 C 0,0 km/h (0 Bft)
08.02.2014 20:35 2,5 C 67 % 1000,1 hPa 0,0 l/m 0,8 km/h (0 Bft) O 90 -3,0 C 2,6 C 2,4 km/h (1 Bft)
08.02.2014 20:40 2,7 C 68 % 1000,1 hPa 0,0 l/m 2,6 km/h (1 Bft) O-SO 112 -2,6 C 2,7 C 4,2 km/h (1 Bft)
08.02.2014 20:45 2,8 C 67 % 1000,1 hPa 0,0 l/m 2,6 km/h (1 Bft) O-SO 112 -2,7 C 2,9 C 2,3 km/h (1 Bft)
08.02.2014 20:50 3,0 C 66 % 1000,1 hPa 0,0 l/m 1,9 km/h (1 Bft) O-SO 112 -2,7 C 2,9 C 5,6 km/h (1 Bft)
08.02.2014 20:55 3,0 C 66 % 1000,1 hPa 0,0 l/m 2,6 km/h (1 Bft) O 90 -2,7 C 3,1 C 2,9 km/h (1 Bft)
08.02.2014 21:00 2,8 C 67 % 1000,1 hPa 0,0 l/m 1,9 km/h (1 Bft) O 90 -2,7 C 3,1 C 0,0 km/h (0 Bft)
08.02.2014 21:05 2,6 C 69 % 999,8 hPa 0,0 l/m 0,2 km/h (0 Bft) O 90 -2,5 C 2,9 C 1,9 km/h (1 Bft)
08.02.2014 21:10 2,5 C 68 % 999,8 hPa 0,0 l/m 1,1 km/h (1 Bft) O-NO 67 -2,8 C 2,6 C 3,7 km/h (1 Bft)
08.02.2014 21:15 2,4 C 68 % 999,8 hPa 0,0 l/m 2,1 km/h (1 Bft) NO 45 -2,9 C 2,3 C 2,7 km/h (1 Bft)
08.02.2014 21:20 2,2 C 68 % 999,8 hPa 0,0 l/m 2,9 km/h (1 Bft) S-SW 202 -3,1 C 2,1 C 5,8 km/h (2 Bft)
08.02.2014 21:25 1,9 C 69 % 999,8 hPa 0,0 l/m 2,6 km/h (1 Bft) O 90 -3,2 C 2,1 C 3,9 km/h (1 Bft)
08.02.2014 21:30 2,0 C 69 % 999,8 hPa 0,0 l/m 2,7 km/h (1 Bft) O-SO 112 -3,1 C 2,1 C 3,5 km/h (1 Bft)
08.02.2014 21:35 2,2 C 70 % 999,8 hPa 0,0 l/m 2,7 km/h (1 Bft) O 90 -2,7 C 2,1 C 4,5 km/h (1 Bft)
08.02.2014 21:40 2,7 C 69 % 999,8 hPa 0,0 l/m 3,7 km/h (1 Bft) O-SO 112 -2,4 C 1,9 C 4,8 km/h (1 Bft)
08.02.2014 21:45 2,8 C 69 % 1000,4 hPa 0,0 l/m 4,8 km/h (1 Bft) SO 135 -2,3 C 1,6 C 7,1 km/h (2 Bft)
08.02.2014 21:50 3,0 C 68 % 1000,4 hPa 0,0 l/m 5,6 km/h (1 Bft) S-SO 157 -2,3 C 1,6 C 7,2 km/h (2 Bft)
08.02.2014 21:55 2,9 C 69 % 1000,4 hPa 0,0 l/m 6,8 km/h (2 Bft) S 180 -2,2 C 1,0 C 9,5 km/h (2 Bft)
08.02.2014 22:00 3,0 C 68 % 1000,4 hPa 0,0 l/m 8,2 km/h (2 Bft) W-SW 247 -2,3 C -0,2 C 7,7 km/h (2 Bft)
08.02.2014 22:05 2,9 C 68 % 1001,2 hPa 0,0 l/m 7,6 km/h (2 Bft) S-SW 202 -2,4 C 0,5 C 4,7 km/h (1 Bft)
08.02.2014 22:10 2,7 C 68 % 1001,2 hPa 0,0 l/m 5,3 km/h (1 Bft) S-SO 157 -2,6 C 2,2 C 6,1 km/h (2 Bft)
08.02.2014 22:15 2,7 C 68 % 1001,2 hPa 0,0 l/m 4,2 km/h (1 Bft) O 90 -2,6 C 2,5 C 6,4 km/h (2 Bft)
08.02.2014 22:20 2,6 C 67 % 1001,2 hPa 0,0 l/m 4,2 km/h (1 Bft) S-SO 157 -2,9 C 2,3 C 4,5 km/h (1 Bft)
08.02.2014 22:25 2,7 C 68 % 1001,1 hPa 0,0 l/m 5,0 km/h (1 Bft) SO 135 -2,6 C 1,8 C 3,7 km/h (1 Bft)
08.02.2014 22:30 2,7 C 67 % 1001,1 hPa 0,0 l/m 4,8 km/h (1 Bft) O-SO 112 -2,8 C 2,0 C 6,6 km/h (2 Bft)
08.02.2014 22:35 2,7 C 67 % 1001,1 hPa 0,0 l/m 4,7 km/h (1 Bft) NO 45 -2,8 C 2,1 C 3,7 km/h (1 Bft)
08.02.2014 22:40 2,2 C 68 % 1001,1 hPa 0,0 l/m 3,9 km/h (1 Bft) NO 45 -3,1 C 2,2 C 1,6 km/h (1 Bft)
08.02.2014 22:43 2,0 C 69 % 1000,8 hPa 0,0 l/m 2,4 km/h (1 Bft) O-NO 67 -3,1 C 2,6 C 3,9 km/h (1 Bft)
08.02.2014 22:45 2,0 C 69 % 1000,8 hPa 0,0 l/m 2,4 km/h (1 Bft) O-NO 67 -3,1 C 2,6 C 3,9 km/h (1 Bft)
08.02.2014 22:50 2,3 C 69 % 1000,8 hPa 0,0 l/m 2,4 km/h (1 Bft) O 90 -2,8 C 2,6 C 0,0 km/h (0 Bft)
08.02.2014 22:55 2,2 C 69 % 1000,8 hPa 0,0 l/m 1,9 km/h (1 Bft) SO 135 -2,9 C 2,6 C 1,6 km/h (1 Bft)
08.02.2014 23:00 2,1 C 69 % 1000,8 hPa 0,0 l/m 0,5 km/h (0 Bft) O-NO 67 -3,0 C 2,5 C 0,0 km/h (0 Bft)
08.02.2014 23:05 2,0 C 69 % 1001,3 hPa 0,0 l/m 1,3 km/h (1 Bft) S-SO 157 -3,1 C 2,4 C 6,4 km/h (2 Bft)
08.02.2014 23:10 1,9 C 71 % 1001,3 hPa 0,0 l/m 4,3 km/h (1 Bft) S 180 -2,8 C 1,4 C 7,6 km/h (2 Bft)
08.02.2014 23:15 1,9 C 71 % 1001,3 hPa 0,0 l/m 5,5 km/h (1 Bft) S 180 -2,8 C 0,9 C 5,3 km/h (1 Bft)
08.02.2014 23:20 2,3 C 71 % 1001,3 hPa 0,0 l/m 5,3 km/h (1 Bft) S 180 -2,4 C 1,0 C 10,9 km/h (2 Bft)
08.02.2014 23:25 2,7 C 69 % 1002,2 hPa 0,0 l/m 5,8 km/h (2 Bft) S-SO 157 -2,4 C 1,5 C 6,4 km/h (2 Bft)
08.02.2014 23:30 3,0 C 65 % 1002,2 hPa 0,0 l/m 9,8 km/h (2 Bft) S 180 -2,9 C -2,1 C 22,4 km/h (4 Bft)
08.02.2014 23:35 2,9 C 66 % 1002,2 hPa 0,0 l/m 10,9 km/h (2 Bft) S 180 -2,8 C -3,0 C 11,3 km/h (2 Bft)
08.02.2014 23:40 2,8 C 66 % 1002,2 hPa 0,0 l/m 9,2 km/h (2 Bft) S-SW 202 -2,9 C -1,4 C 9,0 km/h (2 Bft)
08.02.2014 23:45 2,8 C 66 % 1002,4 hPa 0,0 l/m 7,9 km/h (2 Bft) O 90 -2,9 C 0,0 C 6,4 km/h (2 Bft)
08.02.2014 23:50 2,8 C 67 % 1002,4 hPa 0,0 l/m 8,4 km/h (2 Bft) O-SO 112 -2,7 C -0,7 C 6,0 km/h (2 Bft)
08.02.2014 23:55 2,7 C 67 % 1002,4 hPa 0,0 l/m 8,0 km/h (2 Bft) S 180 -2,8 C -0,4 C 7,2 km/h (2 Bft)
_ Min-Zeit 07:05 15:05 21:40 - 20:25 - - 07:05 07:10 23:00
Minimum _ -4,4 C 37 % 999,8 hPa - 0,0 km/h (0 Bft) - - -6,1 C -4,6 C 0,0 km/h (0 Bft)
_ Max-Zeit 14:50 11:00 00:40 23:55 23:35 - - 12:55 14:05 23:30
Maximum _ 11,2 C 92 % 1010,6 hPa 0,0 l/m 10,9 km/h
S (2 Bft)
- - 2,6 C 15,8 C 22,4 km/h
S (4 Bft)
Durchschnitt _ 2,4 C 71 % 1004,4 hPa #0,0 l/m 2,6 km/h (1 Bft) O-SO - -2,7 C 3,4 C 3,3 km/h (1 Bft)